Location: *
(48.7358°N, 0.3111°E)
Time: 23:56:58
(UTC+00:00)

NOSS 0 Rocket - Pass Details

Date: 22 October 2019
Orbit: 934 x 956 km, 70.0° (Epoch: 16 November)

Event Time Altitude Azimuth Distance (km) Brightness Sun altitude
Exits shadow 03:49:59 63° 209° (SSW) 1,047 3.9 -26.7°
Maximum altitude 03:51:05 90° 295° (WNW) 949 3.8 -26.6°
Drops below altitude 10° 03:57:20 10° 30° (NNE) 2,677 6.8 -25.6°
Sets 03:59:52 0° 31° (NNE) 3,629 7.6 -25.2°
